ProjectID,Date,Electric Generation,Electric Utility Import,Facility Electric Load
,YYYY-MM-DD,kW,kW,kW
531,2017-07-01,620.6875,,620.6875
531,2017-07-02,624.4375,,624.4375
531,2017-07-03,622.6666666666666,,622.6666666666666
531,2017-07-04,606.8333333333334,,606.8333333333334
531,2017-07-05,419.4270833333333,,419.4270833333333
531,2017-07-06,623.5833333333334,,623.5833333333334
531,2017-07-07,615.2291666666666,,615.2291666666666
531,2017-07-08,614.3125,,614.3125
531,2017-07-09,622.3125,,622.3125
531,2017-07-10,622.75,,622.75
531,2017-07-11,624.2604166666666,,624.2604166666666
531,2017-07-12,625.0104166666666,,625.0104166666666
531,2017-07-13,630.875,,630.875
531,2017-07-14,631.375,,631.375
531,2017-07-15,630.21875,,630.21875
531,2017-07-16,627.0104166666666,,627.0104166666666
531,2017-07-17,512.1458333333334,,512.1458333333334
531,2017-07-18,615.0208333333334,,615.0208333333334
531,2017-07-19,628.1354166666666,,628.1354166666666
531,2017-07-20,627.0833333333334,,627.0833333333334
531,2017-07-21,624.0625,,624.0625
531,2017-07-22,618.2395833333334,,618.2395833333334
531,2017-07-23,620.5104166666666,,620.5104166666666
531,2017-07-24,628.6875,,628.6875
531,2017-07-25,630.84375,,630.84375
531,2017-07-26,627.78125,,627.78125
531,2017-07-27,631.8645833333334,,631.8645833333334
531,2017-07-28,630.4791666666666,,630.4791666666666
531,2017-07-29,631.6666666666666,,631.6666666666666
531,2017-07-30,630.8958333333334,,630.8958333333334
531,2017-07-31,625.84375,,625.84375
531,2017-08-01,631.2083333333334,,631.2083333333334
531,2017-08-02,631.5416666666666,,631.5416666666666
531,2017-08-03,631.1458333333334,,631.1458333333334
531,2017-08-04,631.1770833333334,,631.1770833333334
531,2017-08-05,631.4166666666666,,631.4166666666666
531,2017-08-06,631.9166666666666,,631.9166666666666
531,2017-08-07,534.75,,534.75
531,2017-08-08,631.3854166666666,,631.3854166666666
531,2017-08-09,615.125,,615.125
531,2017-08-10,631.0,,631.0
531,2017-08-11,631.4166666666666,,631.4166666666666
531,2017-08-12,631.5520833333334,,631.5520833333334
531,2017-08-13,629.25,,629.25
531,2017-08-14,631.5416666666666,,631.5416666666666
531,2017-08-15,621.9895833333334,,621.9895833333334
531,2017-08-16,631.5833333333334,,631.5833333333334
531,2017-08-17,632.15625,,632.15625
531,2017-08-18,631.84375,,631.84375
531,2017-08-19,631.2395833333334,,631.2395833333334
531,2017-08-20,599.6979166666666,,599.6979166666666
531,2017-08-21,631.1041666666666,,631.1041666666666
531,2017-08-22,628.1666666666666,,628.1666666666666
531,2017-08-23,625.0520833333334,,625.0520833333334
531,2017-08-24,631.8541666666666,,631.8541666666666
531,2017-08-25,630.96875,,630.96875
531,2017-08-26,630.6458333333334,,630.6458333333334
531,2017-08-27,627.8333333333334,,627.8333333333334
531,2017-08-28,631.90625,,631.90625
531,2017-08-29,631.3854166666666,,631.3854166666666
531,2017-08-30,618.0625,,618.0625
531,2017-08-31,602.125,,602.125
531,2017-09-01,608.4479166666666,,608.4479166666666
531,2017-09-02,610.59375,,610.59375
531,2017-09-03,631.46875,,631.46875
531,2017-09-04,617.9583333333334,,617.9583333333334
531,2017-09-05,631.40625,,631.40625
531,2017-09-06,631.3541666666666,,631.3541666666666
531,2017-09-07,610.8541666666666,,610.8541666666666
531,2017-09-08,579.1145833333334,,579.1145833333334
531,2017-09-09,625.4895833333334,,625.4895833333334
531,2017-09-10,595.0416666666666,,595.0416666666666
531,2017-09-11,621.5208333333334,,621.5208333333334
531,2017-09-12,621.9895833333334,,621.9895833333334
531,2017-09-13,582.9479166666666,,582.9479166666666
531,2017-09-14,615.5,,615.5
531,2017-09-15,618.6875,,618.6875
531,2017-09-16,615.9895833333334,,615.9895833333334
531,2017-09-17,617.0416666666666,,617.0416666666666
531,2017-09-18,617.2395833333334,,617.2395833333334
531,2017-09-19,611.6041666666666,,611.6041666666666
531,2017-09-20,615.2708333333334,,615.2708333333334
531,2017-09-21,610.7604166666666,,610.7604166666666
531,2017-09-22,607.6770833333334,,607.6770833333334
531,2017-09-23,617.3125,,617.3125
531,2017-09-24,617.1979166666666,,617.1979166666666
531,2017-09-25,617.9583333333334,,617.9583333333334
531,2017-09-26,619.1041666666666,,619.1041666666666
531,2017-09-27,622.03125,,622.03125
531,2017-09-28,611.8125,,611.8125
531,2017-09-29,463.8020833333333,,463.8020833333333
531,2017-09-30,617.6770833333334,,617.6770833333334
531,2017-10-01,609.5208333333334,,609.5208333333334
531,2017-10-02,594.0729166666666,,594.0729166666666
531,2017-10-03,619.7083333333334,,619.7083333333334
531,2017-10-04,626.8125,,626.8125
531,2017-10-05,612.6458333333334,,612.6458333333334
531,2017-10-06,631.4895833333334,,631.4895833333334
531,2017-10-07,623.7916666666666,,623.7916666666666
531,2017-10-08,614.9375,,614.9375
531,2017-10-09,631.5104166666666,,631.5104166666666
531,2017-10-10,618.6770833333334,,618.6770833333334
531,2017-10-11,631.8958333333334,,631.8958333333334
531,2017-10-12,618.3229166666666,,618.3229166666666
531,2017-10-13,589.4895833333334,,589.4895833333334
531,2017-10-14,627.0520833333334,,627.0520833333334
531,2017-10-15,620.7916666666666,,620.7916666666666
531,2017-10-16,611.6875,,611.6875
531,2017-10-17,594.8333333333334,,594.8333333333334
531,2017-10-18,548.9166666666666,,548.9166666666666
531,2017-10-19,619.9895833333334,,619.9895833333334
531,2017-10-20,616.1041666666666,,616.1041666666666
531,2017-10-21,607.4791666666666,,607.4791666666666
531,2017-10-22,624.2604166666666,,624.2604166666666
531,2017-10-23,618.84375,,618.84375
531,2017-10-24,587.6354166666666,,587.6354166666666
531,2017-10-25,502.03125,,502.03125
531,2017-10-26,471.9583333333333,,471.9583333333333
531,2017-10-27,525.15625,,525.15625
531,2017-10-28,541.1666666666666,,541.1666666666666
531,2017-10-29,538.3020833333334,,538.3020833333334
531,2017-10-30,532.90625,,532.90625
531,2017-10-31,523.3125,,523.3125
531,2017-11-01,587.9270833333334,,587.9270833333334
531,2017-11-02,564.8333333333334,,564.8333333333334
531,2017-11-03,577.4270833333334,,577.4270833333334
531,2017-11-04,603.84375,,603.84375
531,2017-11-05,626.9166666666666,,626.9166666666666
531,2017-11-06,602.96875,,602.96875
531,2017-11-07,596.3541666666666,,596.3541666666666
531,2017-11-08,537.3125,,537.3125
531,2017-11-09,519.15625,,519.15625
531,2017-11-10,550.5104166666666,,550.5104166666666
531,2017-11-11,576.3645833333334,,576.3645833333334
531,2017-11-12,618.0833333333334,,618.0833333333334
531,2017-11-13,628.84375,,628.84375
531,2017-11-14,584.5104166666666,,584.5104166666666
531,2017-11-15,623.7395833333334,,623.7395833333334
531,2017-11-16,622.8125,,622.8125
531,2017-11-17,618.8333333333334,,618.8333333333334
531,2017-11-18,629.3333333333334,,629.3333333333334
531,2017-11-19,622.2083333333334,,622.2083333333334
531,2017-11-20,434.2291666666667,,434.2291666666667
531,2017-11-21,618.4583333333334,,618.4583333333334
531,2017-11-22,623.28125,,623.28125
531,2017-11-23,627.9791666666666,,627.9791666666666
531,2017-11-24,628.6354166666666,,628.6354166666666
531,2017-11-25,626.9791666666666,,626.9791666666666
531,2017-11-26,622.53125,,622.53125
531,2017-11-27,615.9270833333334,,615.9270833333334
531,2017-11-28,627.9375,,627.9375
531,2017-11-29,616.4583333333334,,616.4583333333334
531,2017-11-30,632.125,,632.125
531,2017-12-01,631.3333333333334,,631.3333333333334
531,2017-12-02,625.4895833333334,,625.4895833333334
531,2017-12-03,620.5104166666666,,620.5104166666666
531,2017-12-04,625.9791666666666,,625.9791666666666
531,2017-12-05,632.2083333333334,,632.2083333333334
531,2017-12-06,617.7708333333334,,617.7708333333334
531,2017-12-07,628.1875,,628.1875
531,2017-12-08,628.0833333333334,,628.0833333333334
531,2017-12-09,632.09375,,632.09375
531,2017-12-10,625.7083333333334,,625.7083333333334
531,2017-12-11,624.5416666666666,,624.5416666666666
531,2017-12-12,628.4791666666666,,628.4791666666666
531,2017-12-13,621.8020833333334,,621.8020833333334
531,2017-12-14,613.5729166666666,,613.5729166666666
531,2017-12-15,621.3333333333334,,621.3333333333334
531,2017-12-16,614.7916666666666,,614.7916666666666
531,2017-12-17,621.84375,,621.84375
531,2017-12-18,562.1666666666666,,562.1666666666666
531,2017-12-19,611.3229166666666,,611.3229166666666
531,2017-12-20,599.6458333333334,,599.6458333333334
531,2017-12-21,559.875,,559.875
531,2017-12-22,615.7916666666666,,615.7916666666666
531,2017-12-23,588.75,,588.75
531,2017-12-24,574.53125,,574.53125
531,2017-12-25,576.75,,576.75
531,2017-12-26,549.6666666666666,,549.6666666666666
531,2017-12-27,519.1875,,519.1875
531,2017-12-28,522.3125,,522.3125
531,2017-12-29,515.2083333333334,,515.2083333333334
531,2017-12-30,524.1770833333334,,524.1770833333334
531,2017-12-31,499.84375,,499.84375
531,2018-01-01,526.2604166666666,,526.2604166666666
531,2018-01-02,507.0416666666667,,507.0416666666667
531,2018-01-03,523.2708333333334,,523.2708333333334
531,2018-01-04,538.0520833333334,,538.0520833333334
531,2018-01-05,490.7604166666667,,490.7604166666667
531,2018-01-06,533.65625,,533.65625
531,2018-01-07,536.5416666666666,,536.5416666666666
531,2018-01-08,555.7083333333334,,555.7083333333334
531,2018-01-09,558.5833333333334,,558.5833333333334
531,2018-01-10,569.8958333333334,,569.8958333333334
531,2018-01-11,588.34375,,588.34375
531,2018-01-12,595.7083333333334,,595.7083333333334
531,2018-01-13,550.5416666666666,,550.5416666666666
531,2018-01-14,538.9270833333334,,538.9270833333334
531,2018-01-15,535.8541666666666,,535.8541666666666
531,2018-01-16,553.0208333333334,,553.0208333333334
531,2018-01-17,571.2916666666666,,571.2916666666666
531,2018-01-18,600.8645833333334,,600.8645833333334
531,2018-01-19,465.375,,465.375
531,2018-01-20,598.0208333333334,,598.0208333333334
531,2018-01-21,606.0520833333334,,606.0520833333334
531,2018-01-22,608.0520833333334,,608.0520833333334
531,2018-01-23,614.2291666666666,,614.2291666666666
531,2018-01-24,560.4479166666666,,560.4479166666666
531,2018-01-25,563.8541666666666,,563.8541666666666
531,2018-01-26,573.4791666666666,,573.4791666666666
531,2018-01-27,581.625,,581.625
531,2018-01-28,551.53125,,551.53125
531,2018-01-29,559.0208333333334,,559.0208333333334
531,2018-01-30,542.96875,,542.96875
531,2018-01-31,558.3541666666666,,558.3541666666666
531,2018-02-01,560.2395833333334,,560.2395833333334
531,2018-02-02,503.1041666666667,,503.1041666666667
531,2018-02-03,535.1875,,535.1875
531,2018-02-04,551.0520833333334,,551.0520833333334
531,2018-02-05,504.125,,504.125
531,2018-02-06,512.4895833333334,,512.4895833333334
531,2018-02-07,558.3125,,558.3125
531,2018-02-08,543.3541666666666,,543.3541666666666
531,2018-02-09,564.46875,,564.46875
531,2018-02-10,580.0833333333334,,580.0833333333334
531,2018-02-11,590.6458333333334,,590.6458333333334
531,2018-02-12,549.25,,549.25
531,2018-02-13,569.8333333333334,,569.8333333333334
531,2018-02-14,589.9270833333334,,589.9270833333334
531,2018-02-15,584.1041666666666,,584.1041666666666
531,2018-02-16,570.9791666666666,,570.9791666666666
531,2018-02-17,583.0520833333334,,583.0520833333334
531,2018-02-18,574.2395833333334,,574.2395833333334
531,2018-02-19,582.78125,,582.78125
531,2018-02-20,599.3854166666666,,599.3854166666666
531,2018-02-21,445.4895833333333,,445.4895833333333
531,2018-02-22,415.6041666666667,,415.6041666666667
531,2018-02-23,553.625,,553.625
531,2018-02-24,561.1354166666666,,561.1354166666666
531,2018-02-25,599.2083333333334,,599.2083333333334
531,2018-02-26,577.3125,,577.3125
531,2018-02-27,576.0416666666666,,576.0416666666666
531,2018-02-28,583.1666666666666,,583.1666666666666
531,2018-03-01,582.6979166666666,,582.6979166666666
531,2018-03-02,589.0520833333334,,589.0520833333334
531,2018-03-03,592.0625,,592.0625
531,2018-03-04,601.5208333333334,,601.5208333333334
531,2018-03-05,592.6979166666666,,592.6979166666666
531,2018-03-06,572.71875,,572.71875
531,2018-03-07,598.21875,,598.21875
531,2018-03-08,605.0833333333334,,605.0833333333334
531,2018-03-09,583.4479166666666,,583.4479166666666
531,2018-03-10,569.15625,,569.15625
531,2018-03-11,571.0208333333334,,571.0208333333334
531,2018-03-12,541.1041666666666,,541.1041666666666
531,2018-03-13,524.5520833333334,,524.5520833333334
531,2018-03-14,538.40625,,538.40625
531,2018-03-15,546.0625,,546.0625
531,2018-03-16,536.8645833333334,,536.8645833333334
531,2018-03-17,535.34375,,535.34375
531,2018-03-18,527.8229166666666,,527.8229166666666
531,2018-03-19,529.1979166666666,,529.1979166666666
531,2018-03-20,527.5729166666666,,527.5729166666666
531,2018-03-21,493.7604166666667,,493.7604166666667
531,2018-03-22,543.2083333333334,,543.2083333333334
531,2018-03-23,547.8125,,547.8125
531,2018-03-24,542.34375,,542.34375
531,2018-03-25,539.7708333333334,,539.7708333333334
531,2018-03-26,475.75,,475.75
531,2018-03-27,548.3333333333334,,548.3333333333334
531,2018-03-28,541.8229166666666,,541.8229166666666
531,2018-03-29,538.1041666666666,,538.1041666666666
531,2018-03-30,528.3333333333334,,528.3333333333334
531,2018-03-31,535.53125,,535.53125
531,2018-04-01,515.5,,515.5
531,2018-04-02,527.6666666666666,,527.6666666666666
531,2018-04-03,527.1770833333334,,527.1770833333334
531,2018-04-04,533.9791666666666,,533.9791666666666
531,2018-04-05,520.5104166666666,,520.5104166666666
531,2018-04-06,550.5208333333334,,550.5208333333334
531,2018-04-07,531.0104166666666,,531.0104166666666
531,2018-04-08,537.53125,,537.53125
531,2018-04-09,536.7604166666666,,536.7604166666666
531,2018-04-10,526.0833333333334,,526.0833333333334
531,2018-04-11,521.0833333333334,,521.0833333333334
531,2018-04-12,543.875,,543.875
531,2018-04-13,548.7395833333334,,548.7395833333334
531,2018-04-14,519.5729166666666,,519.5729166666666
531,2018-04-15,515.25,,515.25
531,2018-04-16,535.53125,,535.53125
531,2018-04-17,505.3125,,505.3125
531,2018-04-18,529.5729166666666,,529.5729166666666
531,2018-04-19,528.1666666666666,,528.1666666666666
531,2018-04-20,544.6666666666666,,544.6666666666666
531,2018-04-21,531.0833333333334,,531.0833333333334
531,2018-04-22,532.4375,,532.4375
531,2018-04-23,539.5625,,539.5625
531,2018-04-24,541.6145833333334,,541.6145833333334
531,2018-04-25,536.1666666666666,,536.1666666666666
531,2018-04-26,527.59375,,527.59375
531,2018-04-27,464.34375,,464.34375
531,2018-04-28,512.2083333333334,,512.2083333333334
531,2018-04-29,497.6875,,497.6875
531,2018-04-30,528.09375,,528.09375
531,2018-05-01,541.25,,541.25
531,2018-05-02,545.7916666666666,,545.7916666666666
531,2018-05-03,547.40625,,547.40625
531,2018-05-04,577.9791666666666,,577.9791666666666
531,2018-05-05,267.875,,267.875
531,2018-05-06,536.9375,,536.9375
531,2018-05-07,528.5416666666666,,528.5416666666666
531,2018-05-08,519.8020833333334,,519.8020833333334
531,2018-05-09,544.3229166666666,,544.3229166666666
531,2018-05-10,549.9270833333334,,549.9270833333334
531,2018-05-11,548.6354166666666,,548.6354166666666
531,2018-05-12,570.9895833333334,,570.9895833333334
531,2018-05-13,573.28125,,573.28125
531,2018-05-14,579.0625,,579.0625
531,2018-05-15,590.3645833333334,,590.3645833333334
531,2018-05-16,585.5416666666666,,585.5416666666666
531,2018-05-17,577.2916666666666,,577.2916666666666
531,2018-05-18,579.6666666666666,,579.6666666666666
531,2018-05-19,604.5729166666666,,604.5729166666666
531,2018-05-20,585.5729166666666,,585.5729166666666
531,2018-05-21,583.34375,,583.34375
531,2018-05-22,597.25,,597.25
531,2018-05-23,605.28125,,605.28125
531,2018-05-24,615.28125,,615.28125
531,2018-05-25,630.8020833333334,,630.8020833333334
531,2018-05-26,632.7604166666666,,632.7604166666666
531,2018-05-27,634.9166666666666,,634.9166666666666
531,2018-05-28,626.625,,626.625
531,2018-05-29,580.71875,,580.71875
531,2018-05-30,620.6458333333334,,620.6458333333334
531,2018-05-31,615.6458333333334,,615.6458333333334
531,2018-06-01,609.2083333333334,,609.2083333333334
531,2018-06-02,582.09375,,582.09375
531,2018-06-03,574.8333333333334,,574.8333333333334
531,2018-06-04,580.6458333333334,,580.6458333333334
531,2018-06-05,579.84375,,579.84375
531,2018-06-06,567.3958333333334,,567.3958333333334
531,2018-06-07,558.8333333333334,,558.8333333333334
531,2018-06-08,573.25,,573.25
531,2018-06-09,566.5729166666666,,566.5729166666666
531,2018-06-10,569.7083333333334,,569.7083333333334
531,2018-06-11,581.3645833333334,,581.3645833333334
531,2018-06-12,598.875,,598.875
531,2018-06-13,601.8958333333334,,601.8958333333334
531,2018-06-14,610.375,,610.375
531,2018-06-15,624.625,,624.625
531,2018-06-16,619.2395833333334,,619.2395833333334
531,2018-06-17,612.9895833333334,,612.9895833333334
531,2018-06-18,629.1041666666666,,629.1041666666666
531,2018-06-19,606.0625,,606.0625
531,2018-06-20,580.0208333333334,,580.0208333333334
531,2018-06-21,622.03125,,622.03125
531,2018-06-22,607.8854166666666,,607.8854166666666
531,2018-06-23,627.9791666666666,,627.9791666666666
531,2018-06-24,613.25,,613.25
531,2018-06-25,615.625,,615.625
531,2018-06-26,607.7291666666666,,607.7291666666666
531,2018-06-27,612.2083333333334,,612.2083333333334
531,2018-06-28,618.0520833333334,,618.0520833333334
531,2018-06-29,605.6979166666666,,605.6979166666666
531,2018-06-30,575.78125,,575.78125
531,2018-07-01,597.8333333333334,,597.8333333333334
531,2018-07-02,531.90625,,531.90625
531,2018-07-03,539.0208333333334,,539.0208333333334
531,2018-07-04,525.03125,,525.03125
531,2018-07-05,519.84375,,519.84375
531,2018-07-06,497.5520833333333,,497.5520833333333
531,2018-07-07,530.6979166666666,,530.6979166666666
531,2018-07-08,550.7291666666666,,550.7291666666666
531,2018-07-09,573.71875,,573.71875
531,2018-07-10,607.3229166666666,,607.3229166666666
531,2018-07-11,597.7708333333334,,597.7708333333334
531,2018-07-12,593.4166666666666,,593.4166666666666
531,2018-07-13,578.0625,,578.0625
531,2018-07-14,575.625,,575.625
531,2018-07-15,564.2604166666666,,564.2604166666666
531,2018-07-16,562.46875,,562.46875
531,2018-07-17,508.5520833333333,,508.5520833333333
531,2018-07-18,545.3229166666666,,545.3229166666666
531,2018-07-19,451.6458333333333,,451.6458333333333
531,2018-07-20,556.1458333333334,,556.1458333333334
531,2018-07-21,555.7916666666666,,555.7916666666666
531,2018-07-22,535.0625,,535.0625
531,2018-07-23,539.9583333333334,,539.9583333333334
531,2018-07-24,580.6354166666666,,580.6354166666666
531,2018-07-25,487.65625,,487.65625
531,2018-07-26,398.625,,398.625
531,2018-07-27,347.2916666666667,,347.2916666666667
531,2018-07-28,551.3854166666666,,551.3854166666666
531,2018-07-29,554.1145833333334,,554.1145833333334
531,2018-07-30,581.84375,,581.84375
531,2018-07-31,608.3229166666666,,608.3229166666666
531,2018-08-01,623.125,,623.125
531,2018-08-02,620.03125,,620.03125
531,2018-08-03,621.7395833333334,,621.7395833333334
531,2018-08-04,587.09375,,587.09375
531,2018-08-05,593.0833333333334,,593.0833333333334
531,2018-08-06,577.4583333333334,,577.4583333333334
531,2018-08-07,328.6458333333333,,328.6458333333333
531,2018-08-08,0.0,,0.0
531,2018-08-09,67.01041666666667,,67.01041666666667
531,2018-08-10,254.25,,254.25
531,2018-08-11,525.4895833333334,,525.4895833333334
531,2018-08-12,541.3958333333334,,541.3958333333334
531,2018-08-13,552.9166666666666,,552.9166666666666
531,2018-08-14,533.4479166666666,,533.4479166666666
531,2018-08-15,516.3125,,516.3125
531,2018-08-16,520.84375,,520.84375
531,2018-08-17,546.78125,,546.78125
531,2018-08-18,541.71875,,541.71875
531,2018-08-19,566.1666666666666,,566.1666666666666
531,2018-08-20,563.4895833333334,,563.4895833333334
531,2018-08-21,530.8125,,530.8125
531,2018-08-22,561.1875,,561.1875
531,2018-08-23,533.6145833333334,,533.6145833333334
531,2018-08-24,533.3854166666666,,533.3854166666666
531,2018-08-25,506.7395833333333,,506.7395833333333
531,2018-08-26,489.4375,,489.4375
531,2018-08-27,483.65625,,483.65625
531,2018-08-28,487.3125,,487.3125
531,2018-08-29,502.3020833333333,,502.3020833333333
531,2018-08-30,481.6041666666667,,481.6041666666667
531,2018-08-31,499.3645833333333,,499.3645833333333
531,2018-09-01,522.9583333333334,,522.9583333333334
531,2018-09-02,558.09375,,558.09375
531,2018-09-03,553.4270833333334,,553.4270833333334
531,2018-09-04,536.4166666666666,,536.4166666666666
531,2018-09-05,563.03125,,563.03125
531,2018-09-06,560.65625,,560.65625
531,2018-09-07,537.34375,,537.34375
531,2018-09-08,514.125,,514.125
531,2018-09-09,514.71875,,514.71875
531,2018-09-10,527.03125,,527.03125
531,2018-09-11,526.4375,,526.4375
531,2018-09-12,512.7395833333334,,512.7395833333334
531,2018-09-13,509.1458333333333,,509.1458333333333
531,2018-09-14,528.8333333333334,,528.8333333333334
531,2018-09-15,523.6875,,523.6875
531,2018-09-16,108.39583333333333,,108.39583333333333
531,2018-09-17,0.020833333333333332,,0.020833333333333332
531,2018-09-18,207.91666666666666,,207.91666666666666
531,2018-09-19,437.8125,,437.8125
531,2018-09-20,425.7083333333333,,425.7083333333333
531,2018-09-21,487.4166666666667,,487.4166666666667
531,2018-09-22,354.5625,,354.5625
531,2018-09-23,257.3020833333333,,257.3020833333333
531,2018-09-24,521.3645833333334,,521.3645833333334
531,2018-09-25,547.0520833333334,,547.0520833333334
531,2018-09-26,555.0416666666666,,555.0416666666666
531,2018-09-27,543.7708333333334,,543.7708333333334
531,2018-09-28,551.65625,,551.65625
531,2018-09-29,508.5833333333333,,508.5833333333333
531,2018-09-30,531.9479166666666,,531.9479166666666
531,2018-10-01,521.8645833333334,,521.8645833333334
531,2018-10-02,513.7395833333334,,513.7395833333334
531,2018-10-03,527.7083333333334,,527.7083333333334
531,2018-10-04,532.0729166666666,,532.0729166666666
531,2018-10-05,538.6145833333334,,538.6145833333334
531,2018-10-06,550.7395833333334,,550.7395833333334
531,2018-10-07,535.7916666666666,,535.7916666666666
531,2018-10-08,547.78125,,547.78125
531,2018-10-09,536.21875,,536.21875
531,2018-10-10,502.1770833333333,,502.1770833333333
531,2018-10-11,489.0,,489.0
531,2018-10-12,519.8020833333334,,519.8020833333334
531,2018-10-13,532.8125,,532.8125
531,2018-10-14,551.34375,,551.34375
531,2018-10-15,589.5,,589.5
531,2018-10-16,572.625,,572.625
531,2018-10-17,580.3229166666666,,580.3229166666666
531,2018-10-18,575.8333333333334,,575.8333333333334
531,2018-10-19,553.53125,,553.53125
531,2018-10-20,603.9479166666666,,603.9479166666666
531,2018-10-21,602.8541666666666,,602.8541666666666
531,2018-10-22,620.5520833333334,,620.5520833333334
531,2018-10-23,599.09375,,599.09375
531,2018-10-24,549.0625,,549.0625
531,2018-10-25,490.2291666666667,,490.2291666666667
531,2018-10-26,544.9895833333334,,544.9895833333334
531,2018-10-27,586.6875,,586.6875
531,2018-10-28,575.21875,,575.21875
531,2018-10-29,550.8333333333334,,550.8333333333334
531,2018-10-30,537.4270833333334,,537.4270833333334
531,2018-10-31,509.3854166666667,,509.3854166666667
531,2018-11-01,560.7291666666666,,560.7291666666666
531,2018-11-02,561.665625,,561.665625
531,2018-11-03,514.0427083333333,,514.0427083333333
531,2018-11-04,538.065625,,538.065625
531,2018-11-05,572.3364583333332,,572.3364583333332
531,2018-11-06,551.2197916666665,,551.2197916666665
531,2018-11-07,510.87916666666666,,510.87916666666666
531,2018-11-08,529.8739583333333,,529.8739583333333
531,2018-11-09,540.2020833333333,,540.2020833333333
531,2018-11-10,521.0208333333334,,521.0208333333334
531,2018-11-11,534.44375,,534.44375
531,2018-11-12,493.85833333333335,,493.85833333333335
531,2018-11-13,523.9510416666666,,523.9510416666666
531,2018-11-14,498.56145833333335,,498.56145833333335
531,2018-11-15,565.9854166666668,,565.9854166666668
531,2018-11-16,541.4166666666666,,541.4166666666666
531,2018-11-17,494.12083333333334,,494.12083333333334
531,2018-11-18,562.3562500000002,,562.3562500000002
531,2018-11-19,584.8604166666668,,584.8604166666668